RH
25 26 27 28 30 30 32 34 36 40 44 46 45 45 48 50 51 52 53 55 58 61 63 65 68 73 70 60 51 50 51 51 50 52 54 53 53 54 58 62 64 66 68 69 68 67 64 61 60 58 54 51 48 45 44 44 42 39 37 39 39 39 41 40 38 38 36 36 39 41 42 42 44 44 43 42 39 37 36 36 39 40 33 25 18
24 25 27 29 30 30 30 31 32 36 41 46 46 43 44 48 49 50 52 54 56 61 66 64 63 69 75 71 61 54 53 52 51 52 53 53 53 53 55 57 61 64 65 67 68 67 65 62 61 59 55 51 49 46 44 44 42 40 38 41 42 40 41 43 42 37 33 30 28 30 33 35 42 45 44 43 39 36 36 35 37 42 38 29 24
25 25 26 28 29 29 30 31 32 35 37 42 46 45 42 44 46 47 51 53 56 60 64 66 66 68 72 71 65 58 55 53 53 54 54 54 53 52 54 55 57 59 61 64 66 67 65 62 62 60 55 52 50 46 45 44 43 42 39 40 43 41 39 44 45 35 28 27 24 22 21 23 33 41 43 43 41 38 38 36 36 39 37 32 29
28 26 26 26 26 27 29 30 31 34 36 37 42 45 42 42 44 45 49 52 55 59 62 64 67 70 71 71 69 63 59 57 56 57 59 60 57 55 57 58 57 56 58 61 64 66 65 62 61 60 55 51 50 47 45 45 44 44 41 39 41 40 39 45 47 38 28 27 25 20 17 16 20 28 34 39 41 42 41 38 37 37 36 35 31
30 28 27 26 25 26 26 27 30 33 34 34 38 44 42 41 42 43 46 49 52 57 61 64 67 66 66 68 68 65 61 59 56 58 62 62 61 61 61 61 59 58 58 60 62 63 64 63 62 61 56 51 50 49 45 44 45 45 42 40 39 38 38 43 48 44 33 28 24 19 22 22 17 18 23 32 39 39 39 40 40 39 36 34 31
31 30 28 27 25 25 24 24 28 32 34 35 37 42 43 40 40 41 43 46 51 56 60 63 65 64 64 66 66 64 62 59 57 60 63 63 63 64 63 63 63 62 62 62 62 62 62 64 65 63 59 52 50 50 46 44 44 45 43 41 40 38 37 40 47 48 40 34 26 19 24 24 18 17 17 23 32 34 37 40 41 40 36 34 32
32 30 25 24 22 22 24 23 25 29 33 36 36 38 41 39 39 39 40 43 47 52 56 59 61 62 65 67 67 66 64 61 61 63 63 63 64 63 62 64 64 65 65 63 63 63 62 64 67 66 63 56 52 50 48 45 43 45 45 42 40 38 37 37 43 50 47 43 36 27 27 25 20 19 17 17 24 30 35 37 40 41 37 34 33
33 31 25 24 23 23 25 25 26 29 32 35 35 36 38 38 38 39 40 42 44 48 51 55 58 61 66 69 69 69 68 66 65 66 66 65 64 62 60 63 64 66 68 66 64 64 63 64 66 68 65 60 56 53 50 47 44 45 46 44 42 40 38 35 39 48 48 46 46 41 37 34 27 23 21 18 19 24 30 33 36 39 36 34 33
33 32 27 25 25 24 24 24 26 29 32 34 35 36 36 36 37 38 39 39 40 43 46 49 54 58 63 66 68 70 72 72 71 69 69 69 67 66 64 64 64 64 67 67 67 66 65 64 66 67 66 62 59 55 52 50 47 46 47 46 44 41 41 37 37 43 44 43 48 49 44 41 36 32 30 26 20 20 22 25 30 36 36 34 32
32 30 26 23 24 25 25 25 25 27 31 34 35 36 36 35 37 38 39 38 38 41 44 46 49 53 59 62 64 68 70 73 76 75 75 76 75 75 75 73 71 69 68 68 68 69 68 66 66 66 64 63 60 57 54 52 50 48 47 48 46 43 43 41 37 40 42 41 44 48 47 45 41 38 37 32 25 22 21 21 26 31 31 31 34
31 26 24 24 24 26 26 27 28 29 31 34 35 36 36 38 39 39 40 40 41 42 43 45 46 49 55 59 60 63 67 73 78 78 79 81 83 87 89 84 79 77 76 75 73 73 73 68 65 65 64 63 61 59 56 54 52 50 49 49 49 47 44 43 41 40 41 41 41 44 45 45 40 36 38 37 31 28 27 25 27 29 28 28 33
30 26 25 25 25 25 27 28 29 30 32 35 37 38 38 39 40 41 41 42 42 42 43 44 44 46 50 54 57 60 63 68 72 75 78 81 83 90 94 90 86 82 79 80 80 81 83 78 70 67 66 64 63 61 59 57 55 53 52 50 50 50 47 46 44 43 43 41 41 42 42 43 40 35 37 39 36 32 30 29 30 35 34 34 38
24 22 24 26 27 28 29 29 30 32 33 36 40 42 42 40 40 42 42 42 43 43 43 45 45 46 47 50 53 57 60 62 65 70 75 77 77 82 88 90 90 88 81 79 79 84 91 91 83 74 68 65 64 62 61 60 58 56 54 52 51 51 50 49 47 45 44 43 42 41 40 41 40 36 36 37 38 37 35 31 33 36 34 36 46
20 19 22 27 29 29 30 31 31 33 36 40 44 44 42 41 41 42 43 43 44 45 45 47 48 47 48 49 50 54 57 59 62 66 69 72 72 74 79 81 83 87 84 78 75 81 89 94 95 87 77 70 67 66 64 63 62 60 58 55 53 53 52 51 50 48 46 44 44 43 41 41 40 38 36 34 36 40 40 36 37 40 35 34 44
20 22 24 25 27 30 30 31 33 35 39 45 46 44 42 42 43 44 45 44 45 46 47 48 48 47 49 51 51 52 55 57 60 62 64 66 67 68 71 72 73 78 82 78 74 77 83 87 94 95 90 83 75 70 68 66 65 63 62 60 57 55 54 53 52 51 49 46 45 45 44 43 42 40 37 35 35 36 39 39 41 45 44 40 40
20 23 25 25 27 32 32 32 34 37 44 47 44 42 42 44 46 47 47 47 46 47 49 49 49 50 51 53 55 55 56 56 56 58 59 61 63 65 68 69 71 73 78 80 79 78 79 82 87 92 96 95 89 80 73 70 68 66 66 64 61 58 56 55 54 52 51 48 47 47 47 45 44 42 39 39 38 36 38 41 42 41 40 41 40
21 24 27 28 29 32 32 33 35 40 48 47 42 41 43 47 50 50 50 50 49 50 52 53 57 59 59 59 60 60 59 57 54 53 56 58 61 64 66 68 71 73 74 79 82 81 81 82 83 87 92 96 97 92 83 76 72 70 68 67 64 61 58 57 56 54 52 51 49 48 48 46 46 45 42 41 42 42 42 43 43 38 35 35 37
23 26 27 29 31 32 33 33 36 44 49 44 41 44 46 50 53 52 53 53 53 54 54 56 61 66 67 67 65 62 63 62 58 56 57 58 59 60 63 66 69 71 71 74 78 80 82 84 84 87 90 93 96 97 93 86 80 75 71 70 68 64 60 59 58 56 55 53 52 50 49 48 47 47 46 45 46 46 46 46 45 42 37 34 32
26 27 29 32 32 32 33 33 38 48 48 41 43 47 49 53 54 56 58 58 57 57 57 59 62 66 69 71 68 64 65 64 60 59 59 58 59 58 61 64 66 69 71 71 73 74 77 82 85 87 91 94 97 98 98 95 89 84 78 73 70 66 62 61 60 58 58 56 55 54 52 51 51 49 49 50 51 51 50 50 52 48 44 40 34
28 29 32 32 31 34 33 34 44 52 46 42 46 49 52 54 55 58 61 61 62 61 60 61 62 65 68 69 68 65 65 64 60 60 60 59 60 59 58 60 64 68 71 73 73 72 74 78 83 86 89 94 98 98 98 98 94 91 85 79 74 68 64 62 61 60 61 60 58 58 56 54 54 53 53 54 56 57 57 57 58 55 53 50 43
28 30 32 31 33 34 31 39 52 53 45 44 49 52 55 56 56 59 60 62 65 66 65 65 64 67 68 66 65 63 64 64 62 62 62 60 61 61 59 59 62 67 70 72 72 71 73 76 79 82 86 93 98 97 97 98 97 94 91 86 78 71 67 65 63 63 64 63 62 62 60 58 58 56 55 58 61 63 65 65 63 62 61 59 52
29 30 31 32 34 32 38 54 57 48 44 46 52 57 57 54 55 58 59 61 64 66 70 72 71 71 69 67 66 63 62 62 62 63 63 61 62 63 62 62 64 65 68 70 70 69 73 76 78 81 84 91 98 99 97 96 97 96 94 91 84 77 71 68 67 66 66 66 64 65 63 62 62 59 57 61 64 67 69 69 68 66 64 64 59
29 29 31 33 33 35 49 58 51 45 45 46 57 65 58 53 56 57 59 60 60 64 71 76 76 73 73 75 71 65 61 60 61 63 65 66 65 64 64 66 68 68 68 69 69 70 73 75 77 81 84 89 96 99 98 96 97 97 97 94 89 83 77 73 71 70 69 68 68 68 67 67 66 63 63 65 65 68 70 70 71 69 64 65 65
29 29 31 32 35 44 52 50 45 46 45 48 64 66 52 51 57 55 56 58 58 62 67 73 77 76 76 78 74 67 64 62 63 66 70 71 71 70 69 69 71 71 69 69 69 72 75 75 76 79 84 89 92 96 99 98 98 99 98 96 93 89 84 79 76 73 72 71 70 70 71 71 69 67 69 73 71 72 72 71 72 71 65 66 69
30 31 32 33 44 54 52 48 48 48 47 54 62 59 55 58 56 50 51 54 56 59 62 73 82 79 75 74 71 68 67 66 65 67 69 70 73 75 73 72 72 72 72 72 72 73 74 76 78 79 85 90 90 95 99 100 99 99 99 98 96 92 88 83 80 77 74 72 71 71 72 73 71 71 77 79 76 74 74 73 74 73 70 69 71
32 34 35 41 52 54 49 49 51 52 55 57 57 62 69 63 49 45 48 51 54 57 62 74 81 77 73 70 67 66 65 65 66 67 67 68 73 76 74 74 74 74 75 75 74 72 71 74 78 82 88 91 92 98 100 99 100 99 99 100 97 94 91 86 82 79 76 74 71 70 73 74 72 73 79 81 77 76 75 74 75 74 72 71 70
35 38 42 49 51 49 51 54 54 55 57 58 61 65 64 53 45 48 51 53 58 62 68 76 77 73 71 68 66 65 64 64 65 66 67 67 72 76 77 78 77 76 76 75 75 77 75 75 79 85 91 91 93 100 100 99 100 99 100 100 97 95 94 90 85 82 79 76 72 71 73 75 72 71 76 78 77 78 76 74 76 75 73 73 71
40 44 49 51 48 46 51 55 55 57 59 63 65 59 51 50 54 57 60 63 68 71 73 74 72 71 70 68 67 64 63 62 61 62 64 67 72 76 78 77 74 74 76 73 75 81 82 80 80 84 88 88 93 100 100 99 100 99 100 100 98 97 97 93 89 87 84 79 75 74 74 74 72 69 72 75 75 77 76 79 82 77 75 76 71
47 50 50 51 51 51 54 56 57 60 63 64 63 59 60 65 67 67 70 70 71 73 72 70 71 70 69 69 66 62 59 58 57 58 61 68 73 74 75 75 72 72 75 74 75 81 86 87 83 83 87 91 94 99 100 100 100 100 100 100 99 99 98 95 92 92 89 83 78 77 75 73 72 70 72 75 76 76 75 80 83 75 74 79 72
52 52 51 51 53 53 55 59 59 62 66 67 67 68 70 70 69 71 74 72 70 70 69 69 70 72 73 70 66 62 58 56 58 60 63 69 74 74 75 78 77 76 78 79 82 86 89 90 87 87 92 95 95 96 100 101 99 100 100 99 100 100 99 96 95 96 95 89 85 82 79 78 78 78 79 81 82 80 76 75 75 68 67 75 76
52 53 54 56 57 54 54 59 63 67 70 70 70 69 66 63 62 62 65 68 70 70 70 70 69 70 70 65 61 61 59 58 63 66 68 72 77 78 79 81 82 82 82 84 89 91 91 89 88 89 93 94 92 92 96 100 100 100 100 100 100 100 99 98 96 98 99 96 92 89 86 87 89 88 88 90 91 89 82 75 68 59 54 56 64
52 55 56 59 61 58 55 60 67 70 70 69 70 71 72 72 70 66 64 66 69 72 73 72 70 67 65 64 65 68 68 69 73 74 72 71 75 82 83 83 85 83 81 85 90 92 92 90 89 92 95 97 96 96 98 100 100 100 100 100 100 100 100 99 98 99 98 95 95 94 92 91 93 94 92 93 95 93 88 80 65 54 48 43 43
55 58 58 59 60 60 62 67 72 72 71 72 74 76 76 73 72 71 69 67 68 71 71 70 69 68 68 71 73 74 74 74 74 75 75 72 76 84 85 84 85 81 80 86 91 92 92 91 92 96 97 98 99 99 98 99 100 100 99 99 99 100 100 99 99 99 95 93 93 95 95 93 94 97 94 91 92 92 91 85 71 66 66 58 51
55 57 58 57 59 66 72 75 74 73 73 74 75 77 74 67 62 63 66 67 68 71 71 71 70 69 70 73 74 75 74 73 75 78 81 82 83 85 86 85 84 82 82 85 87 88 89 90 94 96 94 95 98 97 97 98 100 100 99 98 98 100 100 99 99 98 95 93 92 93 96 96 95 98 98 94 91 91 92 89 83 85 88 82 77
55 57 58 58 64 74 77 75 74 75 75 74 77 77 72 64 58 59 66 70 72 73 71 69 68 69 72 76 77 78 78 78 82 85 87 89 87 83 82 84 84 82 82 83 83 85 88 91 94 94 93 96 100 99 98 100 100 100 99 98 98 100 100 99 100 99 95 94 93 92 94 94 93 97 99 96 92 91 94 94 93 96 99 95 93
55 57 59 64 74 79 77 74 73 73 69 71 77 74 64 58 58 63 70 71 68 66 63 63 68 72 76 77 76 76 78 81 85 88 89 90 87 81 81 84 85 82 81 83 85 88 91 92 92 93 95 97 100 100 100 100 100 100 98 99 100 100 100 100 100 99 98 97 95 94 93 92 93 96 99 99 94 92 95 99 100 100 99 100 100
54 56 61 72 80 77 74 74 70 66 67 74 76 65 56 60 66 70 73 69 62 61 62 67 74 77 78 78 78 80 81 82 84 88 90 89 88 85 83 85 86 84 82 84 87 89 92 93 93 94 95 95 97 100 100 100 100 99 98 99 100 100 100 100 100 99 100 100 98 96 95 93 94 97 99 99 97 95 96 99 101 100 100 100 100
52 59 70 79 80 76 75 74 70 70 73 74 67 58 60 71 75 74 73 66 60 63 69 75 80 81 80 83 87 90 89 86 87 89 91 92 91 88 84 85 87 86 85 87 89 92 94 94 93 94 94 94 98 100 100 100 100 99 98 99 100 100 99 100 100 100 100 100 100 99 96 94 93 96 99 99 99 97 96 97 98 100 100 100 99
54 67 78 77 74 74 74 71 71 73 71 64 59 62 72 77 74 71 67 61 62 71 78 83 86 84 83 87 93 95 92 91 90 91 93 95 93 90 86 87 89 89 89 90 90 93 95 93 92 94 95 97 100 100 100 100 100 99 98 98 100 100 100 100 100 100 100 100 100 100 99 95 91 93 97 100 100 96 92 94 97 98 100 99 97
62 75 79 73 72 75 73 72 73 70 63 59 62 71 77 73 68 66 62 64 73 81 83 86 87 85 85 90 94 94 94 95 95 96 97 97 95 94 92 92 92 91 90 92 93 94 96 96 97 98 98 100 100 100 100 100 100 100 98 98 99 98 98 100 100 100 100 100 100 100 100 97 94 95 98 100 100 94 85 87 94 95 95 94 90
72 76 73 71 75 77 73 72 72 67 63 65 70 75 73 66 63 63 66 74 81 80 79 83 85 85 87 91 93 95 97 99 99 99 100 98 97 97 96 96 96 94 93 96 96 94 94 97 99 99 100 100 99 100 100 99 100 100 98 98 99 97 96 98 99 99 99 100 100 100 100 100 99 99 99 99 100 94 83 84 90 87 84 83 79
74 71 69 72 75 73 68 65 67 68 66 64 67 70 68 65 65 69 74 80 80 77 80 85 87 88 91 93 96 99 100 100 100 100 100 98 96 95 95 97 97 95 95 96 95 92 91 93 95 95 97 100 100 100 100 100 100 100 99 98 97 96 95 95 98 100 99 99 100 99 99 101 100 100 100 97 99 98 87 81 82 82 83 80 73
67 65 70 75 73 69 67 66 67 65 60 59 62 66 69 70 72 75 79 81 79 79 85 90 92 93 95 97 99 100 100 100 100 99 97 96 94 93 95 96 96 94 92 91 90 89 89 89 90 90 91 97 100 100 99 100 99 99 100 99 96 95 94 91 92 97 98 98 98 98 99 100 99 100 100 96 99 99 85 74 79 88 91 84 76
64 66 72 75 72 68 68 70 66 58 56 60 65 68 71 73 74 79 83 81 80 85 92 95 96 96 97 99 100 100 100 101 99 98 97 97 96 95 95 94 93 90 87 86 86 86 85 85 86 86 87 92 99 100 99 100 99 98 100 100 97 97 95 90 88 92 94 95 94 94 98 100 99 100 98 96 99 95 82 80 92 98 94 88 87
66 70 74 75 72 70 72 70 63 56 58 63 66 69 72 73 77 83 83 82 86 95 98 98 98 97 98 99 100 100 100 100 100 100 98 94 92 94 95 93 90 87 86 86 87 86 85 84 84 84 86 91 98 101 100 100 99 98 99 100 100 99 96 90 88 89 88 87 87 91 96 98 98 98 96 96 98 94 89 93 100 99 96 94 91
67 73 77 74 72 74 74 69 60 58 61 64 67 69 70 73 79 83 82 86 96 100 98 98 98 98 99 100 99 98 97 97 99 99 98 94 92 95 96 92 87 87 88 89 89 88 88 88 86 85 88 93 98 100 100 100 100 99 98 98 100 100 96 90 88 87 87 88 92 96 99 98 96 96 96 98 99 98 97 99 100 99 96 91 87
71 78 78 73 73 76 75 68 62 62 64 66 68 69 70 75 82 83 85 94 101 99 96 98 98 98 98 98 96 95 96 97 97 97 98 98 97 97 97 92 87 89 92 91 91 91 90 88 87 87 89 93 97 99 99 100 100 99 97 96 99 100 98 96 95 94 95 97 99 99 99 98 97 98 99 100 100 100 100 100 101 99 95 91 89
75 81 76 71 74 76 72 66 64 64 66 67 68 69 72 78 82 85 91 99 101 99 98 97 97 97 97 96 95 95 95 96 95 95 97 98 97 98 98 94 92 95 97 95 94 93 92 91 90 89 89 90 92 96 99 99 100 100 97 96 100 101 99 99 100 99 100 100 99 99 100 99 99 100 100 100 100 100 100 100 99 99 97 94 84
74 77 71 72 77 75 70 69 68 67 68 69 69 71 75 80 84 89 96 100 100 100 98 96 95 95 94 95 96 95 94 95 95 95 96 96 97 99 99 97 97 99 100 99 99 98 97 97 96 92 89 87 87 93 97 95 96 99 98 97 100 99 97 99 100 99 99 100 100 100 100 100 100 100 99 100 100 100 100 101 101 99 92 76 58
70 70 68 72 76 72 71 72 70 69 69 69 71 74 78 82 87 92 98 101 100 100 98 93 93 93 92 94 96 94 93 95 95 95 95 95 95 95 95 98 99 97 96 99 101 100 99 100 99 95 92 90 89 92 95 96 97 99 98 98 98 95 95 99 100 98 97 97 98 98 99 99 100 99 99 100 100 99 99 96 90 81 67 51 41
67 67 67 71 72 71 74 73 70 70 72 73 77 80 81 84 89 94 100 101 100 100 98 94 93 93 93 95 95 94 94 94 94 96 96 95 94 92 90 94 98 96 95 98 101 100 99 100 100 97 96 96 96 96 97 99 100 100 99 100 100 97 98 100 99 95 93 93 94 94 95 97 98 96 96 97 97 95 93 86 77 67 56 46 42
Wind_Speed
17 21 23 24 25 26 25 22 22 23 21 21 22 22 21 20 20 20 19 18 17 18 19 18 18 18 16 13 11 10 9 9 8 9 9 10 10 10 11 13 15 16 19 21 24 26 26 25 26 30 33 33 33 33 32 31 33 34 29 27 29 25 19 18 19 16 13 11 10 12 14 15 17 18 17 18 18 18 18 18 16 15 17 18 19
16 20 23 25 26 27 26 24 25 24 23 21 21 22 21 20 20 21 20 19 18 18 18 17 17 16 15 15 14 11 8 8 7 10 12 13 13 12 10 10 11 14 16 18 20 22 23 22 22 25 28 29 30 30 31 32 34 34 28 23 24 25 21 20 23 19 14 13 10 8 11 13 14 16 17 18 19 19 19 18 17 15 16 16 17
18 21 24 27 28 28 26 25 24 23 22 21 20 21 20 20 21 21 21 19 19 18 19 18 18 17 15 15 15 12 9 9 9 11 13 14 15 15 13 11 10 11 13 16 18 19 20 21 21 23 26 28 28 27 28 29 31 32 31 26 22 22 20 20 27 26 17 14 10 7 8 8 9 12 14 16 17 17 16 16 16 15 15 15 15
19 20 23 27 29 28 27 27 25 23 22 21 21 20 19 20 21 22 21 19 19 19 20 20 20 18 16 15 14 12 11 9 8 9 10 12 14 16 15 13 12 11 11 13 16 18 19 20 20 21 23 26 26 25 25 27 29 30 31 29 24 22 19 18 26 30 23 16 10 6 6 6 8 8 10 13 14 14 13 13 13 13 14 15 14
18 19 21 25 28 28 28 29 27 24 22 22 22 20 20 20 21 22 21 20 20 19 20 20 20 19 17 16 14 12 11 9 7 8 9 9 10 13 14 14 14 12 11 11 14 16 17 18 19 20 21 23 25 25 25 26 28 30 32 31 28 26 22 19 23 29 29 24 16 9 5 6 8 7 8 9 12 12 12 12 12 13 14 14 14
16 18 20 24 27 29 29 29 27 25 23 23 23 21 21 21 21 22 21 21 20 20 20 20 19 19 18 18 16 15 13 11 10 10 11 10 10 12 12 12 14 13 12 12 13 14 15 16 18 19 20 21 23 24 24 24 26 29 31 31 30 29 24 19 20 25 26 26 25 17 10 6 5 8 7 6 8 9 11 12 13 13 13 13 13
14 17 20 23 27 29 29 29 28 26 24 23 23 22 22 22 22 22 22 22 21 20 21 21 20 19 19 18 17 16 15 15 15 14 13 11 12 13 12 12 14 14 13 13 13 13 13 14 17 19 19 20 21 23 24 23 24 26 29 31 30 28 26 22 20 23 22 22 26 23 16 12 8 8 7 4 5 6 8 11 12 14 14 14 14
14 16 18 21 25 26 27 28 28 27 25 23 22 22 22 22 23 23 24 23 22 21 22 22 21 20 20 18 17 16 16 17 18 17 15 13 12 12 12 13 13 13 14 13 13 13 13 14 16 17 18 18 19 21 23 23 22 23 27 31 30 27 29 25 20 24 24 20 22 21 18 18 15 11 8 6 5 4 7 9 10 13 14 14 15
15 16 18 22 25 27 27 28 28 28 26 24 23 23 23 24 25 26 26 25 25 25 25 24 22 22 21 19 18 18 17 18 19 19 18 16 15 13 13 13 13 13 14 14 14 13 13 14 15 15 16 17 18 19 21 22 23 23 25 28 29 27 27 27 22 24 26 22 22 22 16 15 16 13 11 9 7 6 6 7 9 11 11 13 16
16 16 19 24 26 27 28 28 29 28 26 25 25 24 26 27 28 28 28 28 28 28 27 26 24 23 21 20 20 20 19 19 20 19 18 17 17 15 14 13 13 14 14 15 16 15 13 13 13 14 14 15 17 18 19 21 22 23 25 27 30 29 27 28 25 23 26 25 27 27 20 15 12 9 12 13 11 9 8 5 8 10 8 11 15
16 16 21 27 28 27 28 28 29 30 28 26 25 26 28 29 30 30 30 29 29 29 28 27 26 23 21 21 22 21 21 21 21 20 19 18 17 15 14 15 15 16 16 16 18 18 15 14 13 13 13 14 15 17 18 20 21 23 25 26 30 31 28 28 27 24 25 26 28 30 27 23 19 13 15 17 12 8 8 5 7 9 7 8 12
18 17 19 24 26 27 29 29 30 30 29 27 27 28 29 30 31 31 31 30 30 30 29 28 27 25 23 22 22 21 21 21 21 21 20 19 18 16 15 17 17 17 18 19 20 21 19 15 13 13 13 14 15 16 17 18 20 21 23 24 26 29 29 27 27 26 26 25 27 30 30 29 26 20 19 23 20 14 10 7 6 9 6 6 11
20 19 20 20 21 25 28 29 29 28 28 28 27 28 29 31 31 30 30 30 30 31 30 29 28 27 25 23 22 21 21 21 21 20 20 19 19 18 17 17 16 16 18 20 21 21 20 18 15 13 13 14 14 16 16 17 19 19 21 23 24 26 28 28 28 28 27 27 28 30 29 27 26 23 23 29 27 18 12 8 7 9 6 6 10
19 20 20 19 22 27 29 28 28 28 27 27 27 28 29 31 31 31 31 31 30 31 30 29 28 27 26 24 22 21 21 21 20 19 19 19 19 19 18 17 17 16 18 20 20 19 20 19 17 15 14 14 15 16 16 17 19 20 21 22 23 24 25 27 29 28 28 28 29 31 31 28 27 28 29 31 29 21 14 11 7 6 5 5 8
19 20 20 22 28 31 30 30 29 27 25 24 27 29 31 32 32 31 31 31 31 30 29 28 27 26 25 24 23 22 21 21 20 19 18 19 19 19 19 18 18 18 19 20 20 19 19 19 18 18 16 16 16 16 17 17 18 20 21 21 22 22 23 25 27 27 28 27 29 33 35 33 32 33 32 31 32 29 23 18 12 6 4 5 5
21 20 21 25 31 31 31 31 29 26 23 24 28 31 32 32 32 32 32 31 31 30 29 28 28 26 25 24 24 23 21 21 21 20 19 19 19 19 19 19 19 19 19 19 19 19 19 20 20 20 19 18 18 17 17 18 18 19 20 21 22 21 22 24 25 26 28 27 29 34 36 35 34 34 33 31 31 33 28 24 20 12 6 5 5
22 20 21 25 29 30 31 31 27 24 23 27 32 34 33 32 31 32 32 32 31 30 29 28 27 26 25 24 23 23 22 23 23 23 22 20 19 19 19 19 19 19 19 18 18 18 19 20 21 21 21 21 20 19 19 18 18 19 21 21 22 21 21 23 24 25 26 26 27 31 33 32 31 33 34 32 31 31 28 24 24 19 12 7 5
23 23 23 25 28 30 32 30 26 23 25 31 34 34 32 31 31 33 33 32 32 31 29 27 26 25 24 23 22 22 22 22 23 23 23 22 21 20 19 19 19 19 19 18 18 17 17 18 21 22 23 23 22 21 20 20 20 20 21 21 22 22 21 22 24 24 24 25 25 28 30 28 29 32 33 32 31 30 29 27 25 22 18 12 6
21 23 22 22 27 31 33 30 25 23 28 34 35 33 31 31 32 32 32 33 32 31 30 27 26 25 23 23 23 23 23 22 22 23 23 23 22 21 20 20 19 19 20 19 19 19 18 17 19 21 21 22 22 23 23 22 21 21 21 21 21 22 22 22 22 24 25 25 24 28 31 28 28 32 33 32 31 30 30 28 25 22 20 17 11
21 22 21 22 28 33 34 29 23 24 31 35 35 33 31 32 32 31 32 33 33 32 30 28 26 25 24 24 24 24 24 23 23 24 24 24 24 23 22 21 20 19 19 19 20 20 19 18 18 19 19 17 18 21 23 23 22 22 22 22 21 21 23 22 21 24 28 28 26 29 32 30 29 32 33 33 32 29 27 25 24 23 20 18 16
22 21 21 23 28 34 35 27 21 26 34 36 34 31 30 30 31 31 31 31 31 31 29 29 28 26 25 25 24 24 23 23 24 24 24 24 25 25 24 22 21 20 19 20 21 21 20 19 19 21 20 18 16 17 20 22 24 25 24 24 24 22 23 23 21 24 31 33 30 31 33 33 32 33 33 32 31 29 26 23 23 22 19 18 19
23 22 22 21 26 33 30 24 25 32 37 36 33 31 31 31 30 30 30 29 30 30 29 29 28 26 25 25 25 24 23 23 23 24 24 24 24 24 25 24 23 22 21 21 22 22 21 20 20 21 22 20 17 16 17 18 21 24 23 24 25 23 23 23 22 25 32 34 34 34 34 34 34 35 34 33 32 30 27 24 22 21 20 20 22
24 24 21 22 28 29 23 24 31 36 37 34 31 30 31 32 30 30 30 30 30 29 28 29 28 26 25 24 24 24 23 23 23 24 24 25 25 24 25 25 24 24 23 22 23 23 22 21 21 22 23 22 19 16 17 18 20 21 21 23 25 24 25 26 25 28 32 34 34 35 35 35 34 34 34 32 32 33 30 26 23 23 22 21 23
26 24 22 24 28 24 22 28 33 35 36 33 30 32 33 32 30 31 31 31 30 29 29 29 27 25 23 22 22 23 24 24 24 24 25 26 26 26 25 25 25 25 25 24 24 23 22 23 22 22 23 24 22 19 17 18 20 21 22 23 24 25 28 30 31 32 34 35 36 36 36 36 35 35 32 29 30 32 31 28 25 22 21 20 20
26 26 24 23 22 19 23 31 33 35 36 32 32 34 33 30 31 33 33 31 30 29 30 30 27 23 21 22 22 22 23 24 24 26 26 27 27 26 26 26 26 26 26 25 24 23 23 23 22 23 24 24 24 20 17 17 19 20 21 22 23 27 29 31 33 34 35 36 38 38 37 36 37 36 30 26 28 31 30 28 25 22 20 19 18
27 27 23 20 17 19 27 32 33 34 34 34 35 33 29 30 35 36 34 32 32 32 31 29 26 23 22 23 23 22 23 24 25 26 27 28 27 26 27 27 26 26 26 25 25 25 24 23 23 24 24 25 24 20 17 17 18 20 21 22 26 29 30 32 33 33 35 37 38 39 38 37 40 39 32 28 31 33 31 29 27 22 20 20 19
25 23 20 19 20 23 28 32 35 35 35 35 35 32 32 35 38 37 34 33 33 33 31 28 25 24 23 24 24 24 26 27 27 27 28 28 28 27 28 27 26 26 26 26 25 25 25 24 24 24 24 26 25 20 18 18 18 20 19 22 29 28 26 31 34 33 34 36 38 40 39 38 41 42 37 34 34 34 33 31 28 24 22 21 19
23 21 20 22 26 25 25 31 36 36 35 35 34 35 37 36 35 34 33 32 32 31 31 29 27 26 26 25 26 27 29 30 30 30 30 28 27 27 27 26 25 25 27 27 26 26 27 26 26 27 26 26 25 21 19 19 19 20 20 23 28 26 22 27 32 32 33 36 37 39 39 39 41 41 39 38 37 37 35 29 25 25 24 21 19
23 22 22 25 27 24 24 30 34 34 35 36 35 35 35 34 34 34 32 32 32 31 30 28 27 28 27 28 29 31 32 33 33 32 31 29 28 27 26 27 27 26 26 26 27 28 29 28 29 32 28 24 24 22 21 22 21 21 23 24 24 22 21 24 26 27 30 35 35 37 38 37 38 39 38 38 37 38 38 31 26 29 28 22 19
23 24 26 25 25 25 26 30 33 33 35 34 32 33 35 37 39 38 37 36 35 33 30 28 28 28 29 30 32 33 34 33 32 31 29 28 29 28 26 27 28 27 25 26 29 31 31 30 31 32 26 23 25 24 23 25 23 22 26 27 24 22 23 24 24 21 23 30 34 35 35 34 34 35 35 35 34 36 38 36 34 35 32 26 21
26 27 27 25 25 25 26 28 30 31 31 31 33 37 40 41 42 42 42 40 37 35 32 31 30 30 31 33 33 34 33 31 29 27 27 28 29 28 28 28 28 27 26 26 27 28 27 27 29 29 26 24 27 28 26 27 25 23 26 28 26 24 24 25 24 20 19 24 30 32 31 29 29 30 31 29 29 31 34 35 35 35 35 32 27
29 28 27 26 26 26 26 27 28 29 30 33 35 36 35 36 39 41 41 40 38 36 33 32 31 31 32 33 31 31 30 27 26 25 26 28 29 28 29 29 27 26 25 24 24 24 24 26 27 28 25 24 26 27 26 24 24 24 26 26 25 24 25 25 24 22 22 25 29 29 28 28 27 27 29 28 26 27 30 31 32 32 32 32 30
27 27 27 25 26 28 27 25 26 29 33 35 33 29 29 33 37 39 39 38 36 34 32 32 31 31 31 30 28 28 27 26 26 26 27 29 29 28 28 27 24 24 24 22 22 22 23 24 25 25 25 24 23 24 23 22 23 24 25 27 26 25 26 26 25 25 27 30 30 28 26 28 27 25 26 29 28 27 27 27 28 27 27 27 26
26 26 25 24 26 26 24 24 29 32 34 34 30 26 27 32 38 40 37 35 34 32 30 29 29 29 29 28 28 27 26 27 27 27 29 30 28 26 25 23 22 22 22 21 21 20 20 21 21 23 24 25 24 24 23 21 22 22 24 28 29 26 27 27 25 26 30 31 31 29 27 28 28 23 23 27 30 28 25 25 25 23 23 23 22
27 26 26 26 25 22 22 28 31 31 32 32 28 27 31 36 40 38 33 30 31 29 28 29 29 29 28 27 27 27 27 28 27 27 29 29 25 22 21 20 20 20 20 20 19 19 18 18 20 22 22 21 22 23 21 19 20 21 22 27 28 26 25 26 25 27 31 31 32 31 28 29 30 25 23 27 31 29 25 24 24 23 21 20 20
27 28 29 28 24 23 27 33 33 32 32 30 27 30 38 42 39 33 26 27 30 30 29 30 28 27 28 29 31 31 30 29 28 27 27 25 22 20 19 19 19 19 19 19 18 18 18 18 20 21 20 20 21 21 19 18 19 19 19 24 25 22 23 24 24 27 28 28 30 32 29 30 31 25 22 26 30 30 27 23 22 22 20 19 18
32 35 31 25 24 27 31 34 35 36 33 27 29 37 42 39 33 26 24 28 30 29 29 28 26 26 30 33 34 33 31 28 26 25 24 23 22 21 19 18 18 18 18 18 18 18 18 19 20 21 21 21 20 19 16 15 16 16 18 21 20 19 21 23 23 24 24 23 26 29 30 31 29 23 22 27 28 28 28 25 22 21 21 19 18
37 36 27 22 25 29 32 33 34 34 30 30 38 42 37 30 26 25 27 29 29 28 28 27 25 28 32 34 33 30 28 26 24 23 22 22 22 21 18 16 17 17 17 18 18 18 18 18 18 20 22 22 21 19 17 16 15 15 18 19 18 19 20 21 22 22 22 21 21 24 28 30 28 24 24 27 28 28 29 28 26 24 21 18 17
35 25 21 26 31 32 33 32 30 29 32 37 41 38 29 26 28 29 29 29 28 27 28 26 26 30 33 33 31 29 27 24 22 22 23 22 21 19 16 15 16 16 17 18 17 17 18 18 18 20 23 23 21 21 19 17 15 15 18 18 18 19 18 19 20 19 17 17 18 20 24 28 29 26 26 27 28 29 29 30 28 23 18 16 17
28 20 23 32 34 31 31 30 28 31 36 37 36 31 26 28 31 31 29 28 27 27 28 28 29 32 34 32 30 29 27 24 22 22 23 21 18 16 15 15 16 16 16 17 17 17 18 18 18 20 21 20 20 21 19 16 14 16 18 17 18 18 17 19 20 18 15 14 15 18 21 25 26 25 25 27 28 30 30 30 27 22 18 18 20
24 26 32 35 31 28 29 31 33 35 36 34 32 29 29 30 30 28 28 27 28 30 30 30 30 33 34 32 30 29 26 25 24 23 21 17 15 15 15 15 15 16 16 17 18 19 20 18 16 16 16 16 18 19 17 14 13 16 18 18 18 17 20 22 20 17 15 13 13 15 18 22 24 24 26 27 27 29 29 29 28 24 21 22 21
27 34 37 32 27 28 31 34 34 33 32 34 35 32 31 31 28 27 28 28 29 31 30 29 31 33 33 32 31 29 26 25 24 20 17 15 14 15 15 15 15 16 17 18 19 20 19 16 14 14 13 14 14 14 14 13 13 15 17 20 20 19 23 26 21 16 13 13 14 16 18 21 24 24 26 27 27 27 27 27 26 23 20 19 19
34 38 36 30 28 31 34 33 30 30 33 36 35 33 31 29 28 29 29 28 30 31 29 28 30 32 32 32 31 30 28 25 21 16 14 15 15 15 15 15 15 16 16 18 20 19 16 15 13 12 11 10 10 11 11 11 11 12 14 20 23 22 26 29 24 19 16 16 17 18 18 21 24 25 26 27 26 26 26 24 23 21 19 18 18
36 36 32 29 31 33 33 28 27 33 37 35 33 31 30 30 30 30 29 29 31 30 28 28 29 30 32 32 32 32 32 26 19 15 14 15 15 15 15 15 15 15 16 17 18 17 15 13 11 10 9 7 5 6 8 9 9 10 11 17 23 24 25 27 26 22 20 21 21 21 21 22 24 24 25 25 25 27 26 23 22 23 21 19 18
38 33 29 30 33 31 28 27 31 36 36 33 31 30 29 30 31 29 29 31 32 31 29 28 29 31 32 32 32 33 31 25 18 14 14 15 15 15 15 14 14 15 15 15 15 14 14 12 9 8 7 4 2 3 4 6 7 7 7 13 22 25 24 24 25 23 23 23 22 21 21 23 24 24 23 23 25 27 26 24 26 26 22 19 17
36 31 29 33 32 27 26 31 36 37 35 33 31 29 29 30 30 28 29 30 30 30 29 28 29 31 31 30 29 28 27 25 21 17 15 15 15 15 14 13 14 14 13 13 12 12 11 11 9 7 5 2 1 2 3 4 5 5 5 10 20 24 23 22 22 20 20 21 20 20 23 23 24 24 23 23 25 27 27 28 27 24 19 17 15
32 28 31 33 29 25 28 33 37 38 35 32 30 29 29 30 28 28 30 30 29 29 29 29 29 29 28 27 25 25 25 25 23 21 18 16 16 16 13 12 13 13 11 10 10 10 10 9 8 7 5 2 1 2 3 4 5 6 5 9 18 23 21 20 19 18 18 19 19 20 22 22 23 25 26 28 30 30 30 28 25 20 17 15 13
31 28 31 31 26 26 31 34 37 37 34 32 31 30 29 29 28 29 30 30 29 28 28 28 28 26 25 24 24 24 24 23 23 23 21 18 18 17 13 12 13 11 8 9 9 8 8 8 7 7 5 2 1 2 3 5 6 7 7 10 17 22 22 21 20 19 18 19 20 22 24 27 30 31 32 33 31 30 28 25 21 18 16 14 12
33 30 32 30 27 29 34 35 36 35 33 32 31 29 29 29 28 29 30 30 29 28 26 25 25 23 22 22 22 22 22 21 22 23 22 22 22 18 13 13 12 10 8 10 10 9 8 7 6 6 5 3 2 2 4 7 8 9 9 11 17 23 25 24 23 22 22 24 25 25 27 30 32 32 32 31 28 26 24 21 18 17 15 14 14
35 33 33 30 29 33 35 35 35 34 32 31 31 30 30 29 28 30 30 30 29 28 25 24 23 22 22 22 22 21 21 21 21 21 22 24 23 18 14 12 12 11 12 10 9 9 9 7 6 6 5 4 3 2 3 7 9 10 10 12 18 25 27 26 26 28 29 29 24 18 18 25 30 31 29 27 25 24 22 19 16 16 15 16 16
34 33 33 32 33 35 34 34 34 33 32 31 31 31 30 29 29 29 29 29 28 26 23 23 23 22 23 23 22 21 21 21 21 20 20 20 21 19 16 14 12 11 11 9 8 9 10 8 6 7 5 3 2 1 2 8 12 12 12 15 20 26 28 28 30 33 31 25 19 15 15 20 27 27 24 24 24 23 21 20 17 16 16 17 17
Wind_Direction
8 9 8 8 7 4 1 356 351 348 348 349 350 351 351 351 352 351 351 350 350 352 350 347 345 346 345 343 349 1 14 22 24 20 14 10 359 338 312 290 275 261 251 243 240 237 233 229 227 228 228 223 220 219 215 212 213 210 204 204 203 198 197 199 193 187 191 202 210 219 227 229 231 235 236 236 238 240 241 241 237 235 234 233 233
9 10 7 6 4 1 360 355 351 347 344 344 346 347 346 348 350 348 347 346 346 346 345 343 341 338 333 328 331 339 359 15 21 25 26 25 22 12 354 328 301 280 266 254 244 239 234 230 225 223 224 222 220 219 218 216 216 211 201 197 199 198 198 195 191 188 195 206 208 216 224 222 222 227 229 228 233 235 235 236 231 224 223 222 221
7 7 5 4 360 356 355 351 348 344 339 339 339 342 343 344 347 346 343 342 341 342 340 336 333 329 324 319 319 318 330 355 12 19 19 19 19 16 10 358 334 306 285 268 255 247 239 234 229 226 226 223 220 217 216 213 211 207 200 195 192 196 201 197 195 198 201 200 202 219 219 210 212 214 215 218 222 222 223 226 224 217 211 209 209
2 3 2 359 355 353 350 346 343 338 336 337 335 336 338 339 341 342 341 339 337 337 337 334 329 325 321 319 314 305 307 322 352 9 5 4 8 9 8 3 351 329 304 281 264 256 247 240 234 230 226 223 219 217 214 210 207 203 201 198 190 190 196 195 198 203 202 189 187 214 214 218 227 199 186 197 201 203 208 210 211 207 202 200 203
358 358 356 353 351 348 345 341 337 334 333 334 333 330 330 333 336 339 340 337 334 333 333 332 330 327 324 325 322 316 314 315 332 351 351 351 355 356 356 356 353 340 316 290 269 259 253 246 239 233 227 223 221 220 218 213 209 206 203 201 197 194 192 188 194 202 204 199 198 202 188 217 233 189 161 174 184 196 201 200 202 199 195 197 200
356 353 351 349 346 343 340 339 335 331 329 330 329 325 323 326 330 336 338 335 332 330 331 330 327 326 326 326 325 323 323 324 329 337 340 341 342 342 343 343 345 341 321 295 278 265 256 250 243 236 230 224 222 222 222 217 212 209 206 204 203 201 196 187 188 196 204 208 211 216 213 216 210 176 176 178 175 191 194 191 197 196 194 196 198
351 348 347 344 341 338 336 336 334 329 326 326 326 323 320 321 324 329 333 333 330 326 328 328 324 323 321 320 319 317 316 316 320 325 328 330 332 334 335 334 336 337 326 302 285 275 262 250 242 237 233 228 223 222 224 221 215 210 208 208 208 205 203 197 187 184 195 210 215 221 224 216 195 176 193 195 171 184 188 187 195 195 194 198 200
342 341 341 339 337 335 331 331 330 327 325 323 323 323 320 318 320 323 326 328 328 325 324 323 321 318 316 313 312 312 311 311 313 316 318 320 323 326 327 328 329 329 328 316 296 279 264 251 241 236 234 229 225 225 226 224 219 212 210 212 211 208 207 208 195 183 190 202 204 213 221 215 210 209 215 216 203 195 178 184 194 193 196 201 203
336 334 335 335 333 331 329 328 326 324 323 321 320 320 318 317 317 319 321 322 323 323 322 321 320 316 312 308 307 307 306 307 309 309 312 314 315 319 321 322 321 319 322 322 313 293 272 258 246 238 235 229 226 227 229 226 222 216 212 212 212 211 211 212 206 195 195 196 194 200 208 209 212 216 217 218 226 225 199 183 179 182 198 207 206
332 329 329 330 328 326 326 326 325 324 322 319 318 316 317 319 319 318 319 319 320 321 320 319 319 316 311 306 303 303 303 304 304 304 307 309 309 312 317 319 318 317 315 315 319 313 294 277 260 249 242 234 230 230 229 226 224 220 216 215 214 214 214 214 214 205 199 199 199 197 192 190 195 204 208 208 217 230 227 200 168 172 193 201 201
325 323 325 327 325 325 327 326 326 325 321 317 316 316 319 320 320 319 317 315 316 318 317 316 315 313 308 305 303 302 303 304 302 302 304 305 304 303 308 312 314 315 314 311 315 319 314 298 280 268 256 243 236 233 231 227 225 223 220 219 218 217 216 214 214 211 203 201 202 199 195 193 193 195 195 193 199 210 214 215 187 180 187 187 189
326 327 327 326 326 327 329 328 325 322 319 317 315 317 320 320 320 318 315 314 313 314 314 312 311 309 306 305 303 302 303 304 303 303 304 304 304 301 300 304 307 311 314 313 312 315 317 311 295 282 266 254 244 237 235 231 228 226 222 220 218 217 217 214 213 211 205 200 201 203 204 203 202 201 192 190 197 198 196 211 191 176 192 194 185
332 330 326 325 327 328 328 326 323 319 317 316 317 319 320 320 319 316 313 312 311 311 311 308 307 305 304 305 304 304 303 304 303 302 303 303 304 304 301 300 299 302 307 310 310 309 311 311 305 292 273 262 255 246 242 236 231 229 226 223 220 217 216 215 215 213 207 203 204 205 206 207 206 205 201 201 202 195 193 208 187 174 192 187 178
333 329 325 324 325 325 324 323 321 318 316 317 319 320 319 318 318 315 312 311 310 309 308 306 304 302 303 303 303 304 304 304 303 302 302 302 301 301 298 295 293 291 295 301 306 306 304 305 304 297 282 269 262 256 250 244 236 233 232 228 224 221 217 217 217 216 212 208 207 207 207 208 209 209 209 207 201 192 190 196 182 177 196 188 182
332 326 323 323 322 322 322 322 320 318 317 320 322 321 319 317 316 314 313 311 310 309 307 305 303 302 302 303 302 302 302 301 300 298 299 300 299 298 294 291 288 285 287 293 299 301 300 301 302 299 293 280 268 260 254 249 242 237 236 233 229 225 220 219 219 218 216 209 208 212 212 211 213 212 210 208 204 200 198 192 179 170 194 204 204
328 321 320 323 322 321 322 321 319 318 319 323 324 321 317 315 314 313 313 311 310 309 307 305 305 303 301 302 301 300 299 297 297 296 296 296 295 294 292 289 288 284 282 285 290 294 296 299 300 299 299 293 280 266 255 250 244 239 238 235 231 226 221 220 220 218 217 211 210 215 215 212 213 213 210 208 206 205 203 197 188 185 195 205 206
322 318 320 322 321 320 321 319 316 317 323 324 323 321 317 313 313 313 313 312 310 309 307 305 304 300 297 298 298 298 296 295 294 294 293 293 291 290 290 288 287 285 282 281 282 285 289 293 295 297 298 296 289 277 261 251 245 241 239 236 232 227 223 222 221 219 218 213 210 213 213 212 211 211 210 207 205 203 201 199 195 193 196 201 207
318 319 320 321 321 320 322 318 312 316 324 326 324 320 316 315 314 314 314 312 310 309 307 305 304 299 296 295 295 296 295 293 293 293 293 292 289 288 288 287 286 284 283 281 278 279 280 282 287 293 294 293 292 286 273 257 247 243 241 238 234 228 223 222 221 219 217 213 209 209 210 209 208 209 208 206 205 203 201 201 199 195 194 198 206
319 321 322 321 320 320 322 318 311 316 325 327 324 318 316 317 316 314 312 312 312 309 307 305 303 299 297 295 296 297 297 295 294 293 293 291 289 289 288 286 284 282 281 281 279 278 277 274 277 282 287 288 287 286 281 267 250 243 242 240 235 228 222 221 219 216 216 212 207 207 208 206 206 207 206 205 203 202 201 200 197 193 194 199 199
321 323 323 322 320 320 321 317 312 319 326 327 323 318 317 317 316 315 313 312 312 309 307 305 303 300 298 297 299 302 301 299 297 295 294 292 291 290 289 287 285 281 281 281 279 279 278 275 272 272 275 276 276 278 280 273 256 244 242 240 235 226 220 220 217 216 219 215 208 208 209 206 204 203 203 203 202 200 198 195 194 193 192 193 193
323 325 323 323 322 320 320 317 314 322 327 326 321 318 317 317 316 315 315 314 312 309 306 305 304 301 298 298 303 306 305 302 299 297 295 293 290 289 288 288 285 282 281 280 280 280 279 277 275 273 273 270 266 268 272 270 260 248 241 239 237 228 220 219 216 217 221 219 213 212 211 209 206 202 200 199 197 194 191 189 191 190 188 190 190
324 324 323 325 323 321 322 322 322 326 327 325 321 320 319 318 317 315 315 314 312 310 307 305 304 301 298 300 305 307 305 303 300 296 294 292 289 286 286 285 284 282 281 278 279 280 278 278 277 275 275 271 264 262 261 258 254 247 240 237 236 227 219 218 214 217 222 220 217 214 211 209 207 204 201 197 194 191 188 185 186 186 186 190 191
324 323 324 324 322 323 326 327 326 327 326 323 321 321 319 318 317 316 315 314 312 311 309 306 304 301 299 301 303 305 305 304 302 297 295 292 288 284 283 282 280 279 278 277 278 278 277 278 278 276 275 272 264 258 255 249 245 243 238 234 233 225 221 220 218 220 222 219 216 214 210 208 205 203 201 197 195 194 190 186 184 185 188 190 191
323 323 323 323 323 326 329 330 329 327 325 322 320 319 319 318 318 317 315 313 311 311 310 308 304 300 300 300 302 305 306 306 306 302 298 295 291 288 283 279 278 277 276 277 277 276 276 276 275 273 272 270 266 258 251 246 244 243 238 234 230 226 226 227 225 224 222 219 216 213 210 207 203 202 200 195 192 192 191 188 184 184 188 188 186
321 322 323 323 326 329 330 330 329 326 324 322 319 319 320 319 319 318 314 312 310 309 310 309 304 301 303 305 305 305 305 305 306 304 300 296 294 292 287 282 280 279 278 277 275 274 275 274 272 272 270 268 267 260 251 246 245 243 239 233 229 227 228 229 228 227 223 219 217 215 211 207 203 201 197 191 191 191 190 188 184 181 185 183 181
321 321 323 325 328 328 328 328 329 328 325 322 322 323 323 321 320 318 313 310 309 308 307 306 304 305 307 308 307 306 306 305 303 301 300 297 293 291 290 286 282 281 278 276 276 276 275 274 273 274 272 269 266 260 252 248 245 242 238 233 231 230 228 228 228 228 225 221 218 216 213 208 204 202 197 192 193 194 192 190 185 180 179 180 181
321 321 323 328 329 327 327 329 331 330 327 326 328 329 324 322 322 320 318 317 315 314 312 310 309 310 309 308 309 308 307 305 301 299 297 295 290 287 288 287 282 281 280 277 278 277 276 276 275 272 272 270 265 256 252 251 247 242 235 231 233 229 224 227 229 227 226 222 219 217 214 210 207 205 202 198 196 195 194 194 189 180 175 176 179
323 325 327 328 327 325 327 330 330 329 330 331 331 327 325 325 325 325 324 324 323 321 317 313 310 309 307 306 307 307 306 304 301 298 294 290 285 281 283 284 281 280 280 281 281 277 276 277 276 274 273 270 264 255 251 252 249 245 236 231 232 227 220 224 225 223 223 222 219 217 215 213 211 209 207 204 202 198 195 193 186 181 178 174 177
326 328 328 327 326 327 329 331 331 332 333 332 330 330 333 335 332 330 327 325 322 318 315 312 307 304 303 303 303 303 301 299 297 295 292 288 284 281 281 283 283 281 281 282 281 279 277 277 278 278 274 270 266 259 254 256 254 249 242 235 230 224 217 217 218 217 219 219 217 215 216 216 214 212 211 210 209 205 200 193 185 186 184 175 175
328 327 326 326 327 329 329 329 333 335 334 335 337 340 340 336 332 328 322 319 316 312 309 307 303 300 300 300 299 298 296 294 292 290 290 288 286 283 281 281 282 281 280 279 278 277 277 275 276 278 274 269 269 264 258 260 259 251 247 241 230 220 214 212 211 208 209 213 213 213 215 215 212 211 211 212 211 209 208 204 198 196 190 179 174
326 326 325 325 327 331 330 329 334 338 340 342 340 335 331 327 325 322 317 313 310 306 303 303 301 299 298 297 295 294 292 291 289 288 291 291 287 283 279 277 278 279 279 277 274 274 273 273 275 276 272 268 269 267 263 263 262 254 247 240 228 217 211 208 208 203 198 203 206 208 211 209 207 208 208 207 205 205 208 209 207 205 200 193 187
325 326 326 325 327 330 329 331 337 341 340 337 331 327 325 324 324 322 318 315 312 308 306 306 304 302 300 299 297 297 295 293 291 292 294 293 288 281 276 274 273 276 279 277 273 271 271 273 276 276 273 268 266 266 263 261 262 256 247 235 223 214 208 205 205 202 198 199 199 201 204 203 203 203 203 201 199 198 201 204 207 208 205 203 200
324 325 326 326 327 328 331 338 342 339 333 328 325 324 325 326 325 321 319 318 316 312 309 308 307 308 307 307 306 305 303 301 298 296 294 290 285 278 272 270 271 276 279 277 275 274 275 278 278 276 277 275 270 267 266 263 262 258 250 237 222 212 208 207 204 203 201 200 198 195 196 199 200 198 199 199 197 194 193 196 200 201 199 201 203
322 323 325 325 325 330 339 343 338 331 327 324 323 325 327 327 325 321 317 316 315 312 312 314 316 316 314 312 310 308 306 303 299 295 291 287 281 276 273 273 276 279 279 277 277 277 278 281 280 278 281 282 278 276 273 268 264 261 255 242 226 211 208 208 205 203 202 200 198 195 192 195 195 192 193 195 192 189 187 188 189 189 189 193 196
321 323 323 323 329 339 343 337 332 329 327 325 326 328 326 322 320 317 314 316 318 317 319 321 320 317 315 314 313 311 307 303 299 295 292 288 283 280 279 279 279 280 280 279 279 279 277 278 278 279 282 281 279 278 275 270 269 266 258 245 228 210 203 205 204 204 203 201 199 197 193 192 192 190 189 189 188 185 182 182 182 181 181 186 191
320 322 321 326 340 346 338 331 330 328 327 327 327 325 322 318 316 314 317 324 326 323 321 320 319 319 321 320 316 310 304 300 297 294 294 295 295 290 284 280 281 283 284 281 278 276 273 273 275 278 282 280 277 276 273 271 274 271 257 243 226 203 194 197 199 201 200 199 198 198 195 193 191 188 186 185 185 182 179 176 175 176 178 180 187
317 317 321 333 343 339 332 328 327 327 327 327 325 322 321 318 317 320 328 331 327 322 320 319 320 324 324 320 313 304 298 296 294 295 297 298 296 292 287 286 289 290 286 281 277 274 272 274 276 279 283 283 279 277 273 271 274 268 253 238 217 190 184 188 191 193 194 194 196 196 195 192 189 186 184 184 183 180 177 173 169 170 173 175 182
316 318 329 342 336 330 328 326 325 327 329 326 322 320 319 319 324 329 330 328 324 322 321 319 320 324 322 316 310 304 299 296 294 295 295 293 294 296 295 295 295 292 286 282 279 276 272 274 277 280 282 282 281 279 277 274 273 261 246 230 201 176 175 180 180 183 188 188 189 191 193 192 188 185 184 184 183 179 177 175 172 169 169 172 181
318 327 342 340 330 326 325 324 326 329 329 326 323 321 321 326 330 329 325 324 324 323 321 319 321 323 318 312 309 306 302 297 293 292 290 290 296 303 303 300 296 291 287 285 282 278 274 272 274 278 279 277 277 279 279 277 268 251 238 220 187 169 168 170 169 172 175 178 181 184 189 192 191 187 185 185 183 180 179 179 176 170 168 176 186
330 344 341 333 328 325 324 327 330 329 327 326 325 324 327 330 329 326 325 324 325 324 323 323 322 319 314 310 308 305 301 297 291 287 286 290 300 306 304 300 296 292 290 287 283 281 277 271 270 276 276 272 273 277 277 273 260 244 232 207 177 166 166 164 163 162 159 163 173 178 183 189 190 187 185 185 182 181 183 182 177 174 175 185 192
342 342 335 330 328 328 329 329 328 328 328 329 328 327 327 326 324 324 325 325 325 326 326 324 321 317 313 310 308 304 300 296 289 284 286 295 303 302 299 298 295 293 291 287 284 285 282 272 267 272 272 269 269 271 271 264 248 239 226 198 175 170 171 166 161 159 158 160 166 172 178 185 186 184 185 185 179 180 185 183 179 182 185 189 192
341 335 331 330 329 331 331 328 325 328 332 331 329 325 323 323 323 323 324 326 327 328 326 322 320 316 313 311 309 304 300 295 290 288 294 301 301 297 294 293 294 294 294 291 290 289 285 278 275 274 268 264 262 260 259 250 239 236 222 194 180 177 175 168 158 153 158 162 165 171 177 182 184 182 185 185 177 174 180 181 179 180 180 181 183
338 332 329 332 333 331 329 327 328 331 332 330 326 323 321 323 323 323 326 328 328 328 325 321 319 316 313 312 309 307 308 304 297 298 304 300 295 294 295 297 300 301 301 299 297 296 292 287 286 280 265 256 254 250 245 237 232 235 219 193 183 180 176 171 164 161 165 168 172 175 176 179 181 180 183 184 175 167 171 174 170 167 166 169 172
334 330 329 334 334 328 326 330 334 334 332 330 326 322 321 322 322 324 328 330 330 329 325 321 320 318 315 314 313 317 322 317 304 301 304 298 294 297 300 304 306 306 304 301 301 305 307 300 294 287 273 258 246 240 234 227 224 228 216 190 177 173 175 175 172 170 172 174 177 179 177 176 177 175 177 178 170 165 168 166 160 160 163 165 164
331 330 333 334 329 325 327 334 336 335 333 329 325 323 323 322 323 327 330 331 331 329 325 323 322 319 316 315 318 323 328 324 311 305 304 300 300 303 304 308 309 305 302 303 306 313 315 309 301 296 288 271 240 217 214 216 211 209 208 183 167 166 174 177 175 176 180 182 184 180 175 173 171 169 170 169 164 164 165 159 157 160 162 159 159
330 331 335 332 326 325 330 334 336 336 333 329 327 327 324 323 325 329 332 332 331 328 325 324 322 319 317 318 320 325 330 329 324 318 311 307 307 304 302 307 308 302 301 307 312 314 314 311 306 301 296 288 228 185 186 198 189 178 185 173 162 165 173 177 177 181 182 180 177 171 169 169 167 165 163 155 150 152 152 150 154 160 157 154 159
330 330 333 331 328 329 333 334 336 335 332 330 329 329 327 325 327 331 332 331 329 328 326 324 321 319 319 322 325 328 330 330 328 325 319 313 310 304 300 303 306 304 306 312 310 306 306 306 305 303 303 302 196 174 170 179 172 154 153 160 158 159 162 162 163 163 162 163 166 167 166 160 151 147 144 139 138 141 144 147 151 154 153 157 166
326 328 331 330 330 332 333 334 334 332 332 332 331 331 331 329 329 332 332 329 329 328 326 322 321 319 319 322 325 327 328 327 327 326 323 316 311 308 304 304 306 305 307 308 302 293 290 293 296 300 302 292 214 183 183 188 174 153 148 152 150 150 150 148 146 145 146 150 152 147 140 134 130 131 133 133 136 139 142 147 149 151 156 164 170
325 328 332 331 331 333 332 332 331 331 331 332 332 332 332 329 329 332 331 328 328 327 324 322 321 319 318 321 323 324 326 325 324 325 323 319 317 315 313 311 309 309 311 308 301 293 284 276 274 283 288 276 251 225 208 203 182 160 158 153 146 150 153 149 144 143 139 134 131 128 127 127 127 129 130 131 133 135 138 143 149 155 162 167 167
325 328 331 331 332 333 331 330 330 331 331 332 332 332 331 330 331 331 330 328 327 326 325 324 324 322 321 323 324 324 325 324 323 322 321 321 322 325 327 322 312 314 321 320 315 320 320 300 269 269 278 278 282 291 221 197 178 162 161 155 152 157 156 147 145 147 141 132 126 122 124 131 133 133 132 132 134 137 139 142 150 159 165 165 163
328 329 330 331 332 331 331 330 331 331 331 331 331 331 331 332 332 330 327 325 326 326 325 325 324 322 322 323 323 323 323 322 321 319 318 319 321 325 331 331 320 318 329 331 329 336 338 328 299 281 278 275 282 300 185 176 170 161 155 151 153 156 151 145 149 150 142 132 131 129 129 136 139 138 139 141 144 146 147 150 155 160 163 161 160